DLH3MA LGAV-EDDF

Flight info

Callsign DLH3MA
Flight time 2h 32m
Altitude 36000
Route KOR UL53 ELVAS DCT TUMBO DCT OVVER DCT RODON DCT NERRA DCT SIRMI DCT SIMBA DCT AKINI T161 DEBHI DEBHI1C
Aircraft A321/M-SDE2E3FGILORWXYZ/HB1

Departure

Time 2026-04-15 13:16
Airport Athens Eleftherios Venizelos International Airport (LGAV)

Arrival

Time 2026-04-15 15:49
Airport Frankfurt Main Airport (EDDF)
Time Latitude Longitude Altitude Speed Heading
2026-04-15 12:42 37.93745 23.94979 300 ft 0 kts 306°
2026-04-15 13:05 37.93730 23.95003 301 ft 4 kts 307°
2026-04-15 13:05 37.93716 23.95030 301 ft 4 kts 289°
2026-04-15 13:06 37.93714 23.95061 302 ft 4 kts 243°
2026-04-15 13:06 37.93725 23.95080 300 ft 0 kts 217°
2026-04-15 13:08 37.93724 23.95078 300 ft 1 kts 217°
2026-04-15 13:08 37.93698 23.95054 302 ft 8 kts 217°
2026-04-15 13:08 37.93633 23.94991 302 ft 15 kts 218°
2026-04-15 13:09 37.93533 23.94893 303 ft 21 kts 218°
2026-04-15 13:09 37.93418 23.94787 301 ft 21 kts 218°
2026-04-15 13:09 37.93302 23.94675 302 ft 21 kts 218°
2026-04-15 13:09 37.93183 23.94559 301 ft 22 kts 217°
2026-04-15 13:10 37.93172 23.94473 302 ft 7 kts 323°
2026-04-15 13:10 37.93208 23.94418 303 ft 11 kts 307°
2026-04-15 13:10 37.93262 23.94323 301 ft 16 kts 307°
2026-04-15 13:10 37.93254 23.94206 305 ft 15 kts 220°
2026-04-15 13:11 37.93162 23.94120 302 ft 18 kts 217°
2026-04-15 13:11 37.93094 23.94020 301 ft 13 kts 266°
2026-04-15 13:11 37.93147 23.93916 302 ft 16 kts 306°
2026-04-15 13:11 37.93225 23.93786 303 ft 21 kts 308°
2026-04-15 13:12 37.93321 23.93625 305 ft 25 kts 307°
2026-04-15 13:12 37.93421 23.93453 302 ft 20 kts 303°
2026-04-15 13:12 37.93374 23.93334 300 ft 17 kts 217°
2026-04-15 13:12 37.93270 23.93234 299 ft 20 kts 218°
2026-04-15 13:13 37.93151 23.93117 298 ft 23 kts 216°
2026-04-15 13:13 37.93014 23.92990 300 ft 26 kts 217°
2026-04-15 13:13 37.92866 23.92850 300 ft 28 kts 217°
2026-04-15 13:13 37.92708 23.92700 303 ft 28 kts 217°
2026-04-15 13:14 37.92612 23.92603 302 ft 13 kts 235°
2026-04-15 13:14 37.92648 23.92525 300 ft 12 kts 359°
2026-04-15 13:14 37.92719 23.92530 300 ft 11 kts
2026-04-15 13:14 37.92800 23.92545 300 ft 13 kts
2026-04-15 13:15 37.92879 23.92586 297 ft 12 kts 35°
2026-04-15 13:15 37.92960 23.92663 297 ft 18 kts 37°
2026-04-15 13:15 37.93176 23.92869 290 ft 73 kts 37°
2026-04-15 13:15 37.93760 23.93425 291 ft 134 kts 37°
2026-04-15 13:16 37.94606 23.94226 598 ft 156 kts 37°
2026-04-15 13:16 37.95485 23.95028 1350 ft 156 kts 36°
2026-04-15 13:16 37.96381 23.95840 1881 ft 166 kts 35°
2026-04-15 13:16 37.97381 23.96746 2133 ft 188 kts 35°
2026-04-15 13:17 37.98476 23.97740 2569 ft 196 kts 35°
2026-04-15 13:17 37.99589 23.98759 3098 ft 199 kts 37°
2026-04-15 13:17 38.00713 23.99797 3647 ft 201 kts 38°
2026-04-15 13:17 38.01855 24.00855 4157 ft 205 kts 39°
2026-04-15 13:18 38.03022 24.01931 4668 ft 209 kts 39°
2026-04-15 13:18 38.04206 24.03024 5190 ft 212 kts 39°
2026-04-15 13:18 38.05409 24.04135 5675 ft 216 kts 40°
2026-04-15 13:18 38.06638 24.05264 6167 ft 221 kts 37°
2026-04-15 13:19 38.08093 24.05967 6632 ft 231 kts
2026-04-15 13:19 38.09706 24.05766 7077 ft 238 kts 341°
2026-04-15 13:19 38.11104 24.04660 7549 ft 240 kts 313°
2026-04-15 13:19 38.11968 24.02881 8033 ft 238 kts 285°
2026-04-15 13:20 38.12111 24.00827 8529 ft 233 kts 258°
2026-04-15 13:20 38.11538 23.98941 9037 ft 228 kts 232°
2026-04-15 13:20 38.10580 23.97377 9539 ft 228 kts 230°
2026-04-15 13:20 38.09742 23.95652 10019 ft 233 kts 241°
2026-04-15 13:21 38.09160 23.93644 10144 ft 254 kts 253°
2026-04-15 13:21 38.08788 23.91334 10270 ft 279 kts 256°
2026-04-15 13:21 38.08395 23.88824 10413 ft 301 kts 256°
2026-04-15 13:21 38.07972 23.86120 10531 ft 323 kts 256°
2026-04-15 13:22 38.07520 23.83241 10649 ft 342 kts 256°
2026-04-15 13:22 38.07046 23.80218 10958 ft 354 kts 256°
2026-04-15 13:22 38.06567 23.77145 11536 ft 356 kts 256°
2026-04-15 13:22 38.06086 23.74071 12226 ft 355 kts 256°
2026-04-15 13:23 38.05603 23.70998 12945 ft 354 kts 255°
2026-04-15 13:23 38.05118 23.67947 13646 ft 353 kts 255°
2026-04-15 13:23 38.04634 23.64900 14285 ft 352 kts 255°
2026-04-15 13:23 38.04148 23.61844 14794 ft 355 kts 255°
2026-04-15 13:24 38.03654 23.58760 15258 ft 359 kts 256°
2026-04-15 13:24 38.03154 23.55644 15712 ft 363 kts 256°
2026-04-15 13:24 38.02646 23.52483 16160 ft 367 kts 256°
2026-04-15 13:24 38.02134 23.49290 16614 ft 371 kts 257°
2026-04-15 13:25 38.01615 23.46067 17078 ft 375 kts 257°
2026-04-15 13:25 38.01089 23.42811 17552 ft 379 kts 257°
2026-04-15 13:25 38.00557 23.39520 17969 ft 383 kts 257°
2026-04-15 13:25 38.00021 23.36198 18383 ft 387 kts 257°
2026-04-15 13:26 37.99477 23.32843 18761 ft 390 kts 257°
2026-04-15 13:26 37.98931 23.29471 19151 ft 392 kts 257°
2026-04-15 13:26 37.98382 23.26081 19544 ft 394 kts 257°
2026-04-15 13:26 37.97827 23.22672 19971 ft 395 kts 257°
2026-04-15 13:27 37.97268 23.19255 20390 ft 397 kts 257°
2026-04-15 13:27 37.96706 23.15819 20795 ft 399 kts 257°
2026-04-15 13:27 37.96142 23.12370 21200 ft 401 kts 257°
2026-04-15 13:27 37.95572 23.08910 21620 ft 402 kts 256°
2026-04-15 13:28 37.94996 23.05432 22004 ft 404 kts 256°
2026-04-15 13:28 37.94419 23.01941 22396 ft 406 kts 256°
2026-04-15 13:28 37.94033 22.98385 22779 ft 410 kts 265°
2026-04-15 13:28 37.94199 22.94760 23141 ft 416 kts 276°
2026-04-15 13:29 37.94934 22.91202 23506 ft 422 kts 288°
2026-04-15 13:29 37.96231 22.87842 23843 ft 429 kts 299°
2026-04-15 13:29 37.97930 22.84716 24138 ft 432 kts 301°
2026-04-15 13:29 37.99661 22.81587 24446 ft 434 kts 301°
2026-04-15 13:30 38.01395 22.78451 24754 ft 436 kts 301°
2026-04-15 13:30 38.03133 22.75291 25072 ft 438 kts 301°
2026-04-15 13:30 38.04873 22.72114 25345 ft 440 kts 301°
2026-04-15 13:30 38.06618 22.68915 25635 ft 442 kts 301°
2026-04-15 13:31 38.08372 22.65704 25928 ft 443 kts 301°
2026-04-15 13:31 38.10133 22.62483 26226 ft 445 kts 301°
2026-04-15 13:31 38.11904 22.59244 26513 ft 447 kts 301°
2026-04-15 13:31 38.13657 22.56038 26799 ft 449 kts 301°
2026-04-15 13:32 38.15463 22.52733 27090 ft 450 kts 301°
2026-04-15 13:32 38.17229 22.49500 27369 ft 452 kts 301°
2026-04-15 13:32 38.19024 22.46213 27632 ft 454 kts 300°
2026-04-15 13:32 38.20829 22.42908 27903 ft 455 kts 300°
2026-04-15 13:33 38.22634 22.39594 28152 ft 457 kts 300°
2026-04-15 13:33 38.24442 22.36261 28387 ft 458 kts 300°
2026-04-15 13:33 38.26253 22.32919 28623 ft 460 kts 300°
2026-04-15 13:33 38.28069 22.29566 28835 ft 461 kts 300°
2026-04-15 13:34 38.29893 22.26199 29082 ft 461 kts 300°
2026-04-15 13:34 38.31714 22.22843 29363 ft 461 kts 300°
2026-04-15 13:34 38.33537 22.19479 29623 ft 461 kts 300°
2026-04-15 13:34 38.35357 22.16113 29918 ft 461 kts 300°
2026-04-15 13:35 38.37172 22.12749 30261 ft 460 kts 300°
2026-04-15 13:35 38.38981 22.09391 30544 ft 459 kts 299°
2026-04-15 13:35 38.40781 22.06041 30838 ft 457 kts 299°
2026-04-15 13:35 38.42572 22.02699 31149 ft 455 kts 298°
2026-04-15 13:36 38.44353 21.99369 31445 ft 454 kts 298°
2026-04-15 13:36 38.46131 21.96045 31733 ft 453 kts 298°
2026-04-15 13:36 38.47904 21.92733 31998 ft 452 kts 298°
2026-04-15 13:36 38.49673 21.89429 32281 ft 450 kts 298°
2026-04-15 13:37 38.51525 21.86198 32584 ft 453 kts 304°
2026-04-15 13:37 38.53750 21.83309 32864 ft 460 kts 314°
2026-04-15 13:37 38.56325 21.80859 33157 ft 464 kts 320°
2026-04-15 13:37 38.59004 21.78559 33428 ft 463 kts 320°
2026-04-15 13:38 38.61669 21.76262 33697 ft 462 kts 320°
2026-04-15 13:38 38.63433 21.74735 33859 ft 462 kts 319°
2026-04-15 13:38 38.66088 21.72428 34101 ft 461 kts 319°
2026-04-15 13:38 38.68732 21.70122 34313 ft 460 kts 319°
2026-04-15 13:39 38.71373 21.67814 34510 ft 459 kts 319°
2026-04-15 13:39 38.74009 21.65517 34694 ft 459 kts 320°
2026-04-15 13:39 38.76649 21.63223 34902 ft 458 kts 320°
2026-04-15 13:39 38.79281 21.60937 35132 ft 457 kts 320°
2026-04-15 13:40 38.81906 21.58654 35328 ft 456 kts 320°
2026-04-15 13:40 38.84527 21.56367 35479 ft 455 kts 320°
2026-04-15 13:40 38.87142 21.54074 35695 ft 455 kts 320°
2026-04-15 13:40 38.89749 21.51788 35877 ft 453 kts 320°
2026-04-15 13:41 38.92354 21.49504 36026 ft 453 kts 320°
2026-04-15 13:41 38.94953 21.47224 36058 ft 452 kts 320°
2026-04-15 13:41 39.00144 21.42671 36062 ft 451 kts 320°
2026-04-15 13:42 39.05329 21.38113 36048 ft 452 kts 320°
2026-04-15 13:42 39.10515 21.33545 36054 ft 452 kts 320°
2026-04-15 13:43 39.15701 21.28978 36056 ft 452 kts 320°
2026-04-15 13:43 39.20888 21.24395 36065 ft 452 kts 320°
2026-04-15 13:44 39.26074 21.19790 36070 ft 453 kts 320°
2026-04-15 13:44 39.31273 21.15181 36090 ft 453 kts 320°
2026-04-15 13:45 39.36478 21.10562 36081 ft 454 kts 320°
2026-04-15 13:47 39.57378 20.91888 36146 ft 457 kts 320°
2026-04-15 13:47 39.62618 20.87200 36158 ft 458 kts 320°
2026-04-15 13:48 39.67849 20.82493 36162 ft 458 kts 320°
2026-04-15 13:48 39.73090 20.77778 36174 ft 458 kts 319°
2026-04-15 13:49 39.78333 20.73045 36162 ft 459 kts 319°
2026-04-15 13:49 39.83585 20.68306 36151 ft 460 kts 319°
2026-04-15 13:50 39.88840 20.63554 36147 ft 460 kts 319°
2026-04-15 13:50 39.94094 20.58782 36131 ft 460 kts 319°
2026-04-15 13:51 39.99339 20.53998 36134 ft 460 kts 319°
2026-04-15 13:51 40.04587 20.49217 36137 ft 460 kts 319°
2026-04-15 13:52 40.09810 20.44403 36143 ft 459 kts 318°
2026-04-15 13:52 40.14944 20.39444 36134 ft 459 kts 317°
2026-04-15 13:53 40.20050 20.34452 36144 ft 459 kts 318°
2026-04-15 13:53 40.25175 20.29480 36130 ft 458 kts 318°
2026-04-15 13:54 40.30282 20.24529 36120 ft 456 kts 318°
2026-04-15 13:54 40.35360 20.19609 36124 ft 457 kts 318°
2026-04-15 13:55 40.40503 20.14619 36123 ft 457 kts 318°
2026-04-15 13:55 40.45586 20.09668 36125 ft 458 kts 318°
2026-04-15 13:56 40.50739 20.04645 36106 ft 458 kts 318°
2026-04-15 13:56 40.55828 19.99669 36108 ft 459 kts 318°
2026-04-15 13:57 40.60947 19.94644 36110 ft 460 kts 318°
2026-04-15 13:57 40.66073 19.89604 36104 ft 459 kts 318°
2026-04-15 13:58 40.71187 19.84571 36107 ft 459 kts 318°
2026-04-15 13:58 40.76307 19.79533 36111 ft 459 kts 318°
2026-04-15 13:59 40.81430 19.74479 36085 ft 461 kts 318°
2026-04-15 13:59 40.86573 19.69385 36076 ft 463 kts 317°
2026-04-15 14:00 40.91722 19.64274 36075 ft 464 kts 317°
2026-04-15 14:00 40.96887 19.59148 36080 ft 465 kts 317°
2026-04-15 14:01 41.04648 19.51416 36081 ft 466 kts 317°
2026-04-15 14:02 41.09830 19.46243 36087 ft 466 kts 317°
2026-04-15 14:02 41.15013 19.41054 36079 ft 467 kts 318°
2026-04-15 14:03 41.20209 19.35858 36072 ft 468 kts 318°
2026-04-15 14:03 41.25411 19.30638 36075 ft 469 kts 318°
2026-04-15 14:04 41.30612 19.25392 36077 ft 470 kts 318°
2026-04-15 14:04 41.35822 19.20142 36081 ft 470 kts 318°
2026-04-15 14:05 41.41032 19.14887 36084 ft 470 kts 318°
2026-04-15 14:05 41.46234 19.09606 36084 ft 470 kts 319°
2026-04-15 14:06 41.51400 19.04237 36083 ft 471 kts 317°
2026-04-15 14:06 41.56509 18.98843 36080 ft 471 kts 317°
2026-04-15 14:07 41.61656 18.93411 36082 ft 472 kts 317°
2026-04-15 14:07 41.66816 18.87992 36080 ft 472 kts 318°
2026-04-15 14:08 41.71978 18.82560 36088 ft 472 kts 318°
2026-04-15 14:08 41.77128 18.77121 36104 ft 471 kts 318°
2026-04-15 14:09 41.82279 18.71670 36089 ft 472 kts 318°
2026-04-15 14:09 41.87424 18.66198 36085 ft 472 kts 318°
2026-04-15 14:10 41.92575 18.60731 36092 ft 472 kts 319°
2026-04-15 14:10 41.97719 18.55261 36098 ft 471 kts 319°
2026-04-15 14:11 42.02850 18.49781 36094 ft 471 kts 319°
2026-04-15 14:11 42.07973 18.44299 36094 ft 470 kts 318°
2026-04-15 14:12 42.13087 18.38809 36108 ft 470 kts 319°
2026-04-15 14:12 42.18189 18.33336 36106 ft 468 kts 319°
2026-04-15 14:13 42.23274 18.27863 36109 ft 467 kts 319°
2026-04-15 14:13 42.28337 18.22394 36112 ft 466 kts 319°
2026-04-15 14:14 42.33398 18.16927 36112 ft 465 kts 319°
2026-04-15 14:14 42.38449 18.11461 36111 ft 465 kts 319°
2026-04-15 14:15 42.43491 18.05982 36111 ft 464 kts 319°
2026-04-15 14:15 42.48516 18.00509 36113 ft 464 kts 319°
2026-04-15 14:16 42.53541 17.95034 36113 ft 463 kts 319°
2026-04-15 14:16 42.58558 17.89551 36114 ft 463 kts 319°
2026-04-15 14:17 42.63531 17.84091 36107 ft 463 kts 319°
2026-04-15 14:17 42.68533 17.78607 36117 ft 462 kts 319°
2026-04-15 14:18 42.73530 17.73123 36119 ft 461 kts 320°
2026-04-15 14:18 42.78516 17.67634 36114 ft 461 kts 320°
2026-04-15 14:19 42.83492 17.62123 36109 ft 461 kts 319°
2026-04-15 14:19 42.88468 17.56605 36107 ft 461 kts 320°
2026-04-15 14:20 42.93502 17.51201 36105 ft 461 kts 322°
2026-04-15 14:20 42.98740 17.46161 36104 ft 460 kts 324°
2026-04-15 14:21 43.04017 17.41201 36102 ft 460 kts 324°
2026-04-15 14:21 43.09249 17.36156 36104 ft 460 kts 324°
2026-04-15 14:22 43.14441 17.31040 36105 ft 459 kts 323°
2026-04-15 14:22 43.18748 17.26794 36104 ft 459 kts 323°
2026-04-15 14:23 43.23936 17.21687 36104 ft 459 kts 323°
2026-04-15 14:23 43.29118 17.16588 36110 ft 458 kts 323°
2026-04-15 14:24 43.34285 17.11485 36111 ft 457 kts 324°
2026-04-15 14:24 43.39445 17.06382 36107 ft 457 kts 324°
2026-04-15 14:25 43.44609 17.01270 36111 ft 457 kts 324°
2026-04-15 14:25 43.49764 16.96145 36116 ft 457 kts 324°
2026-04-15 14:26 43.54921 16.91016 36114 ft 457 kts 324°
2026-04-15 14:26 43.60068 16.85877 36122 ft 456 kts 324°
2026-04-15 14:27 43.65213 16.80722 36118 ft 456 kts 324°
2026-04-15 14:27 43.70357 16.75571 36116 ft 456 kts 324°
2026-04-15 14:28 43.75493 16.70403 36113 ft 456 kts 324°
2026-04-15 14:28 43.80626 16.65238 36117 ft 456 kts 324°
2026-04-15 14:29 43.85724 16.60110 36129 ft 456 kts 324°
2026-04-15 14:29 43.90846 16.54938 36120 ft 456 kts 324°
2026-04-15 14:30 43.95966 16.49749 36126 ft 456 kts 323°
2026-04-15 14:30 44.01092 16.44537 36118 ft 456 kts 323°
2026-04-15 14:31 44.06213 16.39332 36134 ft 456 kts 323°
2026-04-15 14:31 44.11326 16.34126 36131 ft 455 kts 323°
2026-04-15 14:32 44.16562 16.29183 36140 ft 455 kts 332°
2026-04-15 14:32 44.22160 16.25046 36144 ft 456 kts 331°
2026-04-15 14:33 44.27757 16.20900 36151 ft 455 kts 331°
2026-04-15 14:33 44.33334 16.16744 36169 ft 454 kts 331°
2026-04-15 14:34 44.38895 16.12581 36164 ft 453 kts 330°
2026-04-15 14:34 44.44447 16.08425 36179 ft 452 kts 330°
2026-04-15 14:35 44.49992 16.04271 36196 ft 451 kts 330°
2026-04-15 14:35 44.55523 16.00122 36196 ft 450 kts 330°
2026-04-15 14:36 44.61032 15.95968 36217 ft 449 kts 330°
2026-04-15 14:36 44.66522 15.91827 36223 ft 447 kts 330°
2026-04-15 14:37 44.71990 15.87698 36218 ft 445 kts 330°
2026-04-15 14:37 44.77442 15.83571 36227 ft 444 kts 330°
2026-04-15 14:38 44.82878 15.79439 36217 ft 444 kts 330°
2026-04-15 14:38 44.88315 15.75303 36225 ft 444 kts 330°
2026-04-15 14:39 44.93757 15.71158 36227 ft 445 kts 330°
2026-04-15 14:39 44.99196 15.66993 36225 ft 445 kts 330°
2026-04-15 14:40 45.04640 15.62820 36228 ft 445 kts 330°
2026-04-15 14:40 45.10083 15.58637 36228 ft 445 kts 329°
2026-04-15 14:41 45.15529 15.54447 36230 ft 445 kts 329°
2026-04-15 14:41 45.20924 15.50282 36234 ft 444 kts 329°
2026-04-15 14:42 45.26349 15.46091 36230 ft 444 kts 329°
2026-04-15 14:42 45.31763 15.41897 36227 ft 443 kts 329°
2026-04-15 14:43 45.37170 15.37707 36229 ft 442 kts 329°
2026-04-15 14:43 45.42565 15.33514 36233 ft 442 kts 329°
2026-04-15 14:44 45.47949 15.29312 36224 ft 441 kts 329°
2026-04-15 14:44 45.53321 15.25109 36222 ft 440 kts 329°
2026-04-15 14:45 45.58695 15.20914 36228 ft 440 kts 329°
2026-04-15 14:45 45.64059 15.16714 36226 ft 439 kts 329°
2026-04-15 14:46 45.69404 15.12493 36221 ft 439 kts 329°
2026-04-15 14:46 45.74746 15.08269 36219 ft 439 kts 329°
2026-04-15 14:47 45.80087 15.04048 36214 ft 439 kts 329°
2026-04-15 14:47 45.85432 14.99818 36210 ft 439 kts 329°
2026-04-15 14:48 45.90783 14.95581 36214 ft 439 kts 329°
2026-04-15 14:48 45.96131 14.91325 36215 ft 440 kts 329°
2026-04-15 14:49 46.01484 14.87059 36221 ft 440 kts 329°
2026-04-15 14:49 46.06834 14.82786 36217 ft 440 kts 330°
2026-04-15 14:50 46.12186 14.78499 36215 ft 440 kts 330°
2026-04-15 14:50 46.17539 14.74211 36215 ft 440 kts 330°
2026-04-15 14:51 46.22885 14.69907 36214 ft 440 kts 330°
2026-04-15 14:51 46.28226 14.65590 36216 ft 440 kts 331°
2026-04-15 14:52 46.33571 14.61282 36218 ft 439 kts 331°
2026-04-15 14:52 46.38906 14.56964 36216 ft 439 kts 332°
2026-04-15 14:53 46.44232 14.52638 36233 ft 438 kts 331°
2026-04-15 14:53 46.49547 14.48313 36242 ft 437 kts 332°
2026-04-15 14:54 46.54813 14.44023 36245 ft 437 kts 332°
2026-04-15 14:54 46.60111 14.39689 36247 ft 437 kts 332°
2026-04-15 14:55 46.65399 14.35349 36248 ft 436 kts 332°
2026-04-15 14:55 46.70686 14.31009 36241 ft 436 kts 332°
2026-04-15 14:56 46.75967 14.26676 36244 ft 435 kts 332°
2026-04-15 14:56 46.81244 14.22345 36240 ft 435 kts 332°
2026-04-15 14:57 46.86505 14.17994 36233 ft 434 kts 332°
2026-04-15 14:57 46.91761 14.13636 36227 ft 434 kts 332°
2026-04-15 14:58 46.97016 14.09275 36221 ft 434 kts 332°
2026-04-15 14:58 47.02263 14.04909 36210 ft 433 kts 333°
2026-04-15 14:59 47.07493 14.00541 36221 ft 432 kts 333°
2026-04-15 14:59 47.12707 13.96176 36206 ft 431 kts 333°
2026-04-15 15:00 47.17910 13.91821 36208 ft 430 kts 333°
2026-04-15 15:00 47.23099 13.87460 36203 ft 429 kts 333°
2026-04-15 15:01 47.28285 13.83108 36198 ft 429 kts 333°
2026-04-15 15:01 47.33460 13.78754 36178 ft 428 kts 333°
2026-04-15 15:02 47.38614 13.74391 36191 ft 426 kts 334°
2026-04-15 15:02 47.43748 13.70040 36193 ft 424 kts 334°
2026-04-15 15:03 47.48861 13.65694 36193 ft 424 kts 334°
2026-04-15 15:03 47.53967 13.61344 36192 ft 423 kts 334°
2026-04-15 15:04 47.59066 13.56994 36192 ft 422 kts 334°
2026-04-15 15:04 47.64146 13.52647 36168 ft 422 kts 334°
2026-04-15 15:05 47.69236 13.48289 36186 ft 422 kts 333°
2026-04-15 15:05 47.74282 13.43954 36193 ft 422 kts 333°
2026-04-15 15:06 47.81896 13.37394 36203 ft 422 kts 333°
2026-04-15 15:06 47.86967 13.33016 36202 ft 421 kts 333°
2026-04-15 15:07 47.92030 13.28629 36212 ft 421 kts 333°
2026-04-15 15:07 47.97088 13.24230 36197 ft 421 kts 333°
2026-04-15 15:08 48.01290 13.20574 36201 ft 420 kts 333°
2026-04-15 15:08 48.06349 13.16189 36207 ft 420 kts 333°
2026-04-15 15:09 48.11398 13.11788 36207 ft 420 kts 333°
2026-04-15 15:09 48.16441 13.07361 36213 ft 420 kts 333°
2026-04-15 15:10 48.21474 13.02898 36213 ft 421 kts 329°
2026-04-15 15:10 48.25800 12.96882 36211 ft 429 kts 315°
2026-04-15 15:11 48.29746 12.90167 36210 ft 429 kts 316°
2026-04-15 15:11 48.33709 12.83472 36217 ft 429 kts 316°
2026-04-15 15:12 48.37660 12.76759 36219 ft 428 kts 316°
2026-04-15 15:12 48.41600 12.70048 36217 ft 428 kts 316°
2026-04-15 15:13 48.45532 12.63322 36226 ft 427 kts 316°
2026-04-15 15:13 48.49456 12.56595 36219 ft 427 kts 315°
2026-04-15 15:14 48.53371 12.49868 36222 ft 427 kts 315°
2026-04-15 15:14 48.57285 12.43127 36216 ft 427 kts 315°
2026-04-15 15:15 48.61194 12.36368 36224 ft 426 kts 315°
2026-04-15 15:15 48.65092 12.29607 36232 ft 426 kts 315°
2026-04-15 15:16 48.68985 12.22835 36212 ft 426 kts 315°
2026-04-15 15:16 48.72793 12.16055 36231 ft 428 kts 309°
2026-04-15 15:17 48.75386 12.07870 36227 ft 439 kts 289°
2026-04-15 15:17 48.76460 11.98683 36232 ft 443 kts 284°
2026-04-15 15:18 48.77454 11.89459 36234 ft 443 kts 284°
2026-04-15 15:18 48.78446 11.80232 36223 ft 443 kts 284°
2026-04-15 15:19 48.79417 11.71017 36235 ft 442 kts 284°
2026-04-15 15:19 48.80389 11.61803 36240 ft 442 kts 284°
2026-04-15 15:20 48.81347 11.52587 36238 ft 442 kts 284°
2026-04-15 15:20 48.82295 11.43370 36237 ft 442 kts 284°
2026-04-15 15:21 48.83231 11.34148 36228 ft 442 kts 283°
2026-04-15 15:21 48.84633 11.25164 36233 ft 433 kts 297°
2026-04-15 15:22 48.87761 11.17537 36236 ft 422 kts 316°
2026-04-15 15:22 48.92016 11.11452 36236 ft 420 kts 321°
2026-04-15 15:23 48.96321 11.05445 36242 ft 420 kts 320°
2026-04-15 15:23 49.00618 10.99422 35984 ft 419 kts 320°
2026-04-15 15:24 49.02757 10.96413 35740 ft 418 kts 320°
2026-04-15 15:24 49.04896 10.93403 35101 ft 419 kts 320°
2026-04-15 15:24 49.07038 10.90387 34387 ft 420 kts 320°
2026-04-15 15:24 49.09159 10.87396 33536 ft 422 kts 319°
2026-04-15 15:25 49.11317 10.84345 32673 ft 424 kts 319°
2026-04-15 15:25 49.13484 10.81282 31837 ft 426 kts 319°
2026-04-15 15:25 49.15662 10.78200 30961 ft 428 kts 319°
2026-04-15 15:25 49.17858 10.75085 29963 ft 432 kts 319°
2026-04-15 15:26 49.20051 10.71962 29086 ft 431 kts 317°
2026-04-15 15:26 49.22186 10.68766 28458 ft 425 kts 316°
2026-04-15 15:26 49.24238 10.65549 27851 ft 420 kts 315°
2026-04-15 15:26 49.26244 10.62324 27239 ft 416 kts 314°
2026-04-15 15:27 49.28222 10.59125 26620 ft 412 kts 314°
2026-04-15 15:27 49.30187 10.55959 26011 ft 408 kts 314°
2026-04-15 15:27 49.32136 10.52834 25422 ft 404 kts 314°
2026-04-15 15:27 49.34080 10.49746 24834 ft 401 kts 314°
2026-04-15 15:28 49.35983 10.46645 24251 ft 398 kts 309°
2026-04-15 15:28 49.37614 10.43248 23818 ft 397 kts 304°
2026-04-15 15:28 49.39227 10.39711 23369 ft 408 kts 304°
2026-04-15 15:28 49.40858 10.36137 22962 ft 409 kts 304°
2026-04-15 15:29 49.42491 10.32562 22538 ft 408 kts 304°
2026-04-15 15:29 49.44118 10.29000 22141 ft 406 kts 304°
2026-04-15 15:29 49.45736 10.25450 21726 ft 404 kts 304°
2026-04-15 15:29 49.47343 10.21916 21295 ft 402 kts 304°
2026-04-15 15:30 49.48944 10.18395 20900 ft 401 kts 304°
2026-04-15 15:30 49.50528 10.14903 20525 ft 393 kts 304°
2026-04-15 15:30 49.52059 10.11520 20390 ft 377 kts 304°
2026-04-15 15:30 49.53537 10.08253 20050 ft 368 kts 303°
2026-04-15 15:31 49.54987 10.05037 19576 ft 363 kts 303°
2026-04-15 15:31 49.56420 10.01850 19046 ft 361 kts 303°
2026-04-15 15:31 49.57848 9.98681 18619 ft 360 kts 303°
2026-04-15 15:31 49.59257 9.95552 18216 ft 359 kts 303°
2026-04-15 15:32 49.60676 9.92394 17842 ft 358 kts 303°
2026-04-15 15:32 49.62083 9.89257 17488 ft 354 kts 303°
2026-04-15 15:32 49.63480 9.86143 17112 ft 352 kts 303°
2026-04-15 15:32 49.64869 9.83041 16770 ft 350 kts 303°
2026-04-15 15:33 49.66248 9.79957 16413 ft 349 kts 303°
2026-04-15 15:33 49.67623 9.76885 16050 ft 347 kts 303°
2026-04-15 15:33 49.68990 9.73824 15698 ft 345 kts 303°
2026-04-15 15:33 49.70393 9.70831 15348 ft 344 kts 305°
2026-04-15 15:34 49.71762 9.67848 14997 ft 336 kts 303°
2026-04-15 15:34 49.73049 9.64914 14804 ft 323 kts 302°
2026-04-15 15:34 49.74271 9.62091 14682 ft 309 kts 302°
2026-04-15 15:34 49.75441 9.59383 14558 ft 297 kts 302°
2026-04-15 15:35 49.76572 9.56787 14445 ft 285 kts 303°
2026-04-15 15:35 49.77664 9.54297 14317 ft 275 kts 303°
2026-04-15 15:35 49.78723 9.51892 14133 ft 267 kts 302°
2026-04-15 15:35 49.79765 9.49530 13828 ft 265 kts 302°
2026-04-15 15:36 49.80799 9.47178 13487 ft 264 kts 302°
2026-04-15 15:36 49.81825 9.44841 13143 ft 262 kts 302°
2026-04-15 15:36 49.82845 9.42517 12798 ft 260 kts 302°
2026-04-15 15:36 49.83862 9.40207 12479 ft 259 kts 302°
2026-04-15 15:37 49.84855 9.37937 12145 ft 258 kts 302°
2026-04-15 15:37 49.85883 9.35675 11825 ft 257 kts 310°
2026-04-15 15:37 49.87323 9.34044 11498 ft 259 kts 331°
2026-04-15 15:37 49.88952 9.32857 11154 ft 259 kts 334°
2026-04-15 15:38 49.90601 9.31726 10826 ft 258 kts 334°
2026-04-15 15:38 49.92242 9.30606 10519 ft 257 kts 334°
2026-04-15 15:38 49.93879 9.29489 10208 ft 256 kts 334°
2026-04-15 15:38 49.95508 9.28380 9880 ft 255 kts 334°
2026-04-15 15:39 49.97132 9.27273 9550 ft 254 kts 334°
2026-04-15 15:39 49.98748 9.26164 9227 ft 253 kts 334°
2026-04-15 15:39 50.00353 9.25056 8895 ft 252 kts 334°
2026-04-15 15:39 50.01951 9.23947 8554 ft 251 kts 334°
2026-04-15 15:40 50.03537 9.22841 8234 ft 249 kts 334°
2026-04-15 15:40 50.05115 9.21730 7903 ft 248 kts 334°
2026-04-15 15:40 50.06686 9.20622 7581 ft 247 kts 334°
2026-04-15 15:40 50.08207 9.19398 7266 ft 244 kts 319°
2026-04-15 15:41 50.09217 9.17351 6960 ft 239 kts 291°
2026-04-15 15:41 50.09757 9.14908 6604 ft 239 kts 284°
2026-04-15 15:41 50.10223 9.12424 6254 ft 239 kts 284°
2026-04-15 15:41 50.10675 9.09943 5935 ft 238 kts 284°
2026-04-15 15:42 50.11120 9.07470 5587 ft 237 kts 284°
2026-04-15 15:42 50.11560 9.05001 5259 ft 236 kts 284°
2026-04-15 15:42 50.11993 9.02534 4921 ft 236 kts 284°
2026-04-15 15:42 50.12421 9.00077 4579 ft 235 kts 284°
2026-04-15 15:43 50.12802 8.97614 4221 ft 233 kts 274°
2026-04-15 15:43 50.12626 8.95164 4015 ft 228 kts 249°
2026-04-15 15:43 50.12077 8.92833 4005 ft 230 kts 249°
2026-04-15 15:43 50.11526 8.90483 4007 ft 231 kts 249°
2026-04-15 15:44 50.10976 8.88135 4004 ft 227 kts 249°
2026-04-15 15:44 50.10456 8.85918 3967 ft 210 kts 249°
2026-04-15 15:44 50.09967 8.83838 3759 ft 199 kts 248°
2026-04-15 15:44 50.09502 8.81864 3503 ft 189 kts 248°
2026-04-15 15:45 50.09066 8.80014 3261 ft 177 kts 248°
2026-04-15 15:45 50.08652 8.78261 3025 ft 169 kts 248°
2026-04-15 15:45 50.08250 8.76559 2800 ft 166 kts 248°
2026-04-15 15:45 50.07852 8.74878 2565 ft 165 kts 248°
2026-04-15 15:46 50.07464 8.73235 2362 ft 163 kts 248°
2026-04-15 15:46 50.07070 8.71573 2140 ft 164 kts 248°
2026-04-15 15:46 50.06672 8.69891 1909 ft 163 kts 248°
2026-04-15 15:46 50.06288 8.68272 1703 ft 157 kts 249°
2026-04-15 15:47 50.06003 8.66697 1451 ft 147 kts 259°
2026-04-15 15:47 50.05875 8.65136 1227 ft 144 kts 262°
2026-04-15 15:47 50.05708 8.63613 1027 ft 143 kts 251°
2026-04-15 15:47 50.05356 8.62180 884 ft 142 kts 246°
2026-04-15 15:48 50.04995 8.60748 677 ft 142 kts 248°
2026-04-15 15:48 50.04661 8.59315 480 ft 140 kts 246°
2026-04-15 15:48 50.04324 8.57915 372 ft 130 kts 247°
2026-04-15 15:48 50.04046 8.56767 359 ft 92 kts 250°
2026-04-15 15:49 50.03897 8.56099 352 ft 42 kts 256°
2026-04-15 15:49 50.03896 8.55772 357 ft 25 kts 279°
2026-04-15 15:49 50.03906 8.55678 351 ft 0 kts 280°
2026-04-15 15:49 50.03906 8.55674 351 ft 2 kts 280°
2026-04-15 15:50 50.03928 8.55637 357 ft 7 kts 338°
2026-04-15 15:50 50.03981 8.55676 357 ft 10 kts 57°
2026-04-15 15:50 50.04014 8.55804 354 ft 16 kts 69°
2026-04-15 15:50 50.04058 8.55991 354 ft 19 kts 70°
2026-04-15 15:51 50.04105 8.56192 357 ft 20 kts 69°
2026-04-15 15:51 50.04156 8.56402 360 ft 21 kts 69°
2026-04-15 15:51 50.04207 8.56616 358 ft 21 kts 70°
2026-04-15 15:51 50.04273 8.56793 363 ft 18 kts 28°
2026-04-15 15:52 50.04398 8.56842 366 ft 19 kts
2026-04-15 15:52 50.04533 8.56883 359 ft 19 kts 14°
2026-04-15 15:52 50.04667 8.56944 360 ft 20 kts 23°
2026-04-15 15:52 50.04782 8.56987 360 ft 13 kts 323°
2026-04-15 15:53 50.04801 8.56919 359 ft 3 kts 293°
2026-04-15 15:53 50.04803 8.56914 361 ft 0 kts 294°